RH
6 5 6 6 6 6 7 7 7 8 8 9 9 8 8 7 7 7 6 6 7 6 6 7 7 7 7 7 7 8 8 8 9 9 9 9 8 9 9 9 11 11
6 6 7 7 7 8 8 9 9 9 9 9 8 7 7 7 6 6 6 6 6 6 6 6 7 6 6 7 7 7 8 8 8 8 8 9 9 10 10 10 12 15
7 7 7 8 8 9 10 10 10 9 9 8 8 7 7 6 6 6 6 6 6 6 6 6 6 6 6 7 7 7 8 8 8 8 9 9 9 11 13 14 14 15
8 8 9 10 10 10 10 10 9 9 8 8 7 7 7 6 6 6 6 6 6 6 6 6 6 6 7 7 7 7 8 9 9 10 12 11 11 12 15 20 20 17
9 10 11 11 11 11 10 9 9 8 8 8 7 7 7 6 6 6 6 5 6 6 6 7 6 6 7 7 7 8 10 13 12 14 18 17 14 13 13 17 20 20
11 12 12 12 11 10 10 9 9 8 8 8 7 7 6 6 6 6 6 5 6 6 6 7 7 7 7 7 8 9 11 14 14 16 23 21 15 13 12 11 14 19
12 12 12 11 11 10 9 9 9 8 8 7 7 7 6 6 6 6 6 6 5 6 6 6 6 7 7 7 8 8 10 13 14 17 22 21 17 14 11 11 13 17
13 12 12 11 10 10 10 9 9 8 8 7 7 7 7 6 6 6 6 6 5 5 6 6 6 6 7 7 7 7 8 10 13 16 19 19 18 15 12 13 14 16
13 12 12 11 11 11 10 9 9 8 8 8 7 7 7 6 6 6 6 5 5 6 5 6 6 6 6 7 7 7 7 8 10 11 14 15 16 15 14 16 16 15
13 12 12 11 11 10 10 9 9 9 8 8 8 7 7 6 6 6 6 6 6 6 6 6 6 6 7 6 7 7 7 7 8 8 11 16 20 20 19 21 18 15
13 12 12 12 11 10 10 9 9 9 8 8 8 7 7 7 6 6 6 6 7 6 7 7 6 7 7 6 7 7 7 7 8 7 8 13 17 20 21 23 20 13
13 13 12 12 11 10 10 10 9 9 8 8 8 7 7 7 7 7 7 7 7 7 7 7 7 7 7 7 7 7 7 7 7 8 7 9 10 12 17 18 15 9
13 13 12 12 11 11 10 10 10 9 9 9 8 8 8 7 8 7 7 8 7 8 8 7 8 8 7 8 7 7 9 7 8 8 7 8 8 8 12 10 9 9
13 12 12 12 11 11 10 10 10 9 9 9 9 9 9 8 9 8 8 9 8 8 9 8 8 9 8 9 8 8 9 8 9 9 7 10 9 7 10 8 7 10
13 12 12 12 11 11 10 10 10 10 9 10 9 10 10 9 10 9 9 9 9 9 10 9 9 9 9 10 10 9 10 9 9 9 7 9 9 7 10 8 7 9
13 12 12 11 11 11 11 10 11 11 10 11 11 10 11 10 10 11 10 10 10 10 10 9 10 10 9 10 10 10 10 10 9 9 9 8 9 9 9 8 8 8
12 12 11 12 11 11 12 12 12 12 12 12 12 11 12 12 11 12 11 11 11 10 10 10 10 10 10 10 10 10 11 11 10 10 9 8 9 8 7 8 8 8
12 12 11 12 12 12 13 13 13 13 13 13 13 12 13 13 12 13 12 12 13 12 12 11 10 10 10 9 10 11 12 15 16 15 15 15 14 14 13 11 9 11
13 13 12 13 14 14 14 14 14 15 14 14 14 13 14 14 14 15 15 14 15 14 13 13 11 11 10 10 13 14 18 30 37 38 36 31 27 28 27 22 18 17
13 14 14 14 15 15 16 16 16 16 15 15 16 15 16 17 17 17 16 16 17 17 17 16 15 15 14 19 25 28 39 62 73 72 68 61 55 56 51 41 33 24
15 15 16 16 17 17 17 17 17 17 17 18 19 20 21 20 20 20 20 20 21 26 28 25 26 29 31 38 49 59 72 90 94 88 81 72 70 74 70 59 47 37
17 17 18 18 18 19 19 19 19 19 21 23 24 24 24 23 25 28 31 32 34 42 49 46 45 54 60 67 79 89 95 101 99 94 87 78 75 79 77 68 59 58
20 20 20 20 20 21 21 21 23 24 26 29 29 28 27 29 34 39 46 52 56 64 72 71 72 80 88 92 99 103 101 101 101 100 97 94 92 92 88 82 76 80
22 22 23 23 23 25 26 27 29 29 31 33 36 38 37 41 48 54 59 69 77 82 89 92 92 96 101 102 102 102 101 100 100 100 100 100 99 98 97 96 94 96
24 25 27 28 29 31 33 35 36 35 36 40 45 51 53 57 64 68 71 79 88 94 100 103 102 101 102 103 101 100 100 100 100 100 100 100 100 100 100 100 100 100
28 30 32 34 36 38 39 40 42 43 47 51 55 61 66 71 76 78 80 88 96 102 103 103 103 102 101 101 101 100 100 100 100 100 100 100 100 100 100 100 100 100
Wind_Speed
37 37 38 39 41 42 44 45 46 48 49 50 51 52 53 54 54 55 55 55 56 56 57 58 59 60 60 60 59 57 57 57 58 59 60 61 61 60 59 59 58 58
38 39 41 42 43 44 46 47 48 49 50 51 52 53 54 54 55 56 56 56 56 57 58 59 60 61 62 62 62 61 60 59 59 59 59 61 61 61 61 60 59 59
40 41 43 44 45 47 48 49 49 50 51 52 53 54 55 55 56 57 57 57 57 58 58 59 61 62 62 63 63 64 64 63 61 59 59 60 61 62 61 60 60 60
43 44 46 47 48 49 49 50 51 51 52 53 54 55 55 56 57 57 58 58 58 59 59 60 61 63 63 64 64 65 65 65 62 60 60 60 61 62 60 58 58 60
46 47 48 49 50 50 51 51 52 52 53 54 54 55 56 57 58 58 59 59 59 60 60 61 62 63 64 64 65 65 65 65 63 61 61 61 61 61 59 57 57 57
48 49 50 50 51 51 52 53 53 54 55 56 56 57 58 58 59 60 60 61 61 61 62 63 63 64 64 65 65 65 65 65 64 62 62 62 62 62 61 60 57 54
49 50 51 51 52 53 53 54 55 56 56 57 58 58 59 60 61 62 62 63 63 63 63 63 63 64 64 64 65 66 66 66 65 64 64 64 64 64 62 62 60 55
51 52 52 53 53 54 55 56 56 57 58 59 59 60 60 61 62 62 62 63 63 63 63 62 62 62 63 63 64 66 66 66 66 66 66 65 66 66 64 63 62 56
52 53 53 54 55 55 56 57 58 58 59 60 61 61 62 62 63 63 62 62 62 62 62 61 61 61 61 62 63 65 66 67 67 67 68 67 67 67 65 65 63 56
53 54 55 56 56 57 58 59 60 61 61 62 63 63 63 63 63 63 62 62 62 61 61 61 61 61 61 61 61 63 64 66 67 67 68 68 68 68 66 65 64 56
55 56 57 58 58 59 60 61 62 63 63 64 64 65 64 64 64 63 63 63 62 62 62 62 62 62 62 62 61 62 63 64 66 67 67 68 68 68 67 66 64 58
56 57 58 59 60 61 62 63 64 64 65 65 65 66 65 65 64 64 64 64 64 63 63 63 63 62 63 62 62 62 62 63 65 66 67 68 69 69 68 66 64 59
58 59 60 61 62 63 64 64 65 65 66 66 66 66 66 65 65 65 65 65 65 65 64 64 63 63 63 62 61 61 61 62 63 65 67 68 69 69 68 67 63 59
60 61 62 63 64 64 65 65 66 66 66 66 65 65 65 65 66 66 66 66 65 65 65 64 63 63 62 61 61 60 60 61 62 63 65 66 68 68 67 65 62 58
61 62 63 64 64 65 65 65 65 65 65 65 65 65 65 65 66 66 66 66 65 65 64 64 63 62 61 60 59 59 58 59 60 61 62 64 65 65 64 62 61 58
62 63 64 65 65 65 65 65 65 65 65 64 64 65 65 65 65 65 65 65 65 65 64 63 62 61 59 58 57 57 57 58 58 58 59 61 61 62 62 60 58 56
63 64 65 65 65 65 65 64 64 64 64 64 64 64 64 65 65 65 65 65 65 65 64 63 61 59 57 56 55 55 55 56 56 56 56 57 57 58 59 57 55 53
64 65 65 64 64 64 63 63 63 63 63 63 64 64 64 64 64 64 64 64 64 63 62 61 60 58 56 54 53 53 52 52 53 53 53 53 53 53 54 54 53 50
64 64 64 64 63 63 63 63 62 62 62 63 63 64 64 64 64 64 63 62 62 62 61 60 58 56 54 53 51 50 49 48 48 48 48 48 48 48 50 51 50 47
63 63 63 63 62 62 62 61 62 62 62 62 63 63 63 64 63 63 62 61 61 61 60 58 56 54 52 50 48 46 43 41 41 40 41 43 44 44 46 48 47 45
62 62 62 61 61 61 61 61 61 61 61 62 63 63 63 63 63 64 63 62 61 60 59 56 53 50 49 46 43 41 37 35 36 37 39 42 43 42 44 46 46 44
61 61 61 61 61 60 61 60 60 60 61 62 63 62 62 63 64 64 64 62 60 57 55 52 49 46 44 41 37 35 33 32 33 36 40 43 44 44 45 46 45 43
59 60 60 60 60 60 60 60 60 60 61 62 63 63 63 63 64 63 62 61 58 53 49 47 44 41 38 35 32 31 30 29 30 33 36 39 40 42 44 45 44 41
58 59 59 60 59 59 59 59 59 60 60 61 62 63 63 63 63 62 59 56 53 48 44 42 40 37 34 30 28 26 25 26 27 29 31 34 37 40 42 42 41 39
58 58 58 58 58 57 58 58 59 59 60 60 60 61 62 61 60 59 56 51 47 42 38 37 36 34 31 28 26 23 21 21 23 25 28 32 35 37 37 37 37 36
56 56 56 56 56 56 56 57 58 59 59 59 59 59 60 59 57 55 51 46 41 36 33 32 31 31 29 26 24 21 19 19 21 25 28 31 33 33 33 33 34 33
Wind_Direction
299 300 301 301 301 302 302 302 303 303 302 302 301 301 301 302 302 302 301 300 299 298 297 296 295 294 293 292 291 288 286 284 283 282 282 281 281 280 278 276 275 273
299 300 300 301 302 303 304 304 304 303 302 302 301 302 302 302 301 300 300 299 298 297 296 295 294 293 292 292 291 289 287 285 283 282 280 279 279 278 277 275 274 273
300 301 302 303 303 304 305 305 304 303 303 303 303 303 302 301 301 300 299 298 297 296 295 294 293 292 291 291 290 288 287 285 283 282 280 278 277 276 275 274 273 272
304 305 305 306 307 307 307 306 305 304 304 303 303 302 301 301 300 299 298 297 296 295 294 293 292 291 291 290 289 287 287 286 285 283 281 279 277 276 275 273 271 271
308 309 309 309 309 308 307 306 306 305 304 304 303 302 301 300 299 298 297 296 295 294 293 292 291 291 290 289 288 287 286 285 285 284 282 280 279 278 278 275 272 271
310 311 311 310 309 308 308 307 306 306 305 304 303 302 301 300 299 298 297 296 295 294 293 291 291 290 289 288 287 286 285 284 284 283 281 280 279 278 278 277 274 273
312 312 311 310 309 309 308 307 307 306 305 304 303 302 302 301 300 298 297 296 295 293 292 291 289 288 287 286 285 284 283 282 281 280 279 279 279 278 278 277 276 276
313 312 311 311 310 309 309 307 307 306 305 304 303 302 301 300 299 298 297 296 295 293 292 290 288 287 285 284 283 282 281 280 279 278 277 277 277 277 277 277 277 277
313 312 312 311 310 309 308 307 306 305 304 303 303 302 301 301 300 299 298 296 295 293 292 290 288 287 285 283 281 280 279 278 277 276 276 275 275 275 276 276 277 277
313 312 312 311 310 309 308 307 306 306 305 305 304 304 303 302 301 300 298 297 295 293 291 290 288 286 285 282 280 279 277 277 276 275 274 274 274 274 275 275 276 276
313 312 311 310 310 309 308 308 307 307 307 306 305 304 304 302 301 300 298 296 294 293 291 289 287 286 284 282 280 278 276 275 275 274 274 273 273 273 274 274 275 275
313 312 311 311 310 310 309 309 308 308 307 307 306 305 304 302 301 299 297 296 294 293 291 289 288 286 284 282 280 278 276 274 273 272 272 272 272 272 273 273 274 273
314 313 312 312 311 311 310 310 309 308 307 307 306 305 304 302 300 298 297 295 294 293 291 290 288 286 285 283 280 278 276 273 271 270 270 270 270 271 272 272 272 272
314 313 313 312 312 311 310 310 309 308 307 306 305 304 303 301 300 298 296 295 294 293 292 290 289 287 286 284 282 279 276 273 271 269 268 268 268 269 270 271 271 271
314 314 313 312 312 311 310 310 309 308 307 306 305 304 302 301 299 298 297 296 295 293 292 291 290 288 287 286 284 281 278 274 271 269 267 267 267 267 268 269 269 269
315 314 313 313 312 312 311 310 309 308 307 306 305 304 302 301 300 299 298 298 296 295 294 292 291 290 288 287 285 282 279 275 272 269 266 265 265 265 266 266 266 266
315 314 314 313 313 312 311 311 310 309 308 307 306 304 303 303 302 301 300 299 298 297 295 294 292 291 289 287 284 281 278 275 272 269 266 264 264 264 264 264 263 262
315 315 314 314 313 313 312 311 311 310 309 308 307 306 305 304 304 303 302 301 300 298 297 295 293 292 290 286 283 280 276 273 270 267 265 263 262 262 262 262 261 259
316 315 314 314 314 313 313 312 312 311 311 310 309 308 307 306 306 305 304 303 302 300 298 296 294 292 289 286 282 279 275 271 267 265 263 261 259 258 258 258 259 257
316 315 315 315 315 314 314 314 314 314 313 312 311 310 309 309 308 307 306 305 304 302 299 297 294 292 288 285 281 277 273 269 265 260 257 256 255 254 254 254 254 253
316 316 316 316 316 316 316 317 317 316 315 313 312 312 312 312 311 309 308 307 305 303 301 297 295 291 288 284 280 275 272 267 260 253 248 248 247 248 249 250 250 250
318 318 318 318 318 319 319 319 318 317 316 316 315 315 315 314 312 311 311 309 307 305 302 298 295 291 288 284 279 274 271 266 259 252 248 247 246 246 247 249 249 249
320 320 320 320 321 321 321 320 320 319 318 318 318 317 316 315 313 313 313 312 310 308 305 300 296 292 288 284 279 275 272 267 260 254 251 249 248 246 246 247 248 247
323 323 323 323 323 323 322 322 321 321 320 320 320 318 317 316 316 317 316 315 313 311 307 302 298 294 290 284 279 276 274 267 260 254 250 248 246 244 243 245 246 246
325 324 324 324 324 323 323 323 323 322 322 322 320 319 317 318 320 320 318 317 316 314 310 306 301 297 292 286 281 277 270 263 256 251 248 246 246 245 244 244 244 244
326 325 325 325 324 324 325 325 324 323 323 322 321 319 319 321 323 322 320 319 319 316 313 309 305 301 295 288 281 273 262 255 250 247 244 245 246 246 245 243 242 241